Tracking 28794 objects as of 19-Apr-2024
HD Live streaming from Space Station
objects crossing your sky now

STARLINK-2104

Track STARLINK-2104 now!
10-day predictions
STARLINK-2104 is classified as:


NORAD ID: 47384
Int'l Code: 2021-005AM
Perigee: 553.3 km
Apogee: 555.4 km
Inclination: 53.1 °
Period: 95.6 minutes
Semi major axis: 6925 km
RCS: Unknown
Launch date: January 20, 2021
Source: United States (US)
Launch site: AIR FORCE EASTERN TEST RANGE (AFETR)
Your satellite tracking list
Your tracking list is empty




NASA's NSSDC Master Catalog

Two Line Element Set (TLE):
1 47384U 21005AM  24109.70591341  .00001815  00000-0  14075-3 0  9995
2 47384  53.0547 249.3091 0001507  83.5270 276.5890 15.06390802179466
Source of the keplerian elements: AFSPC